• In Uzbekistan
  • List of Countries
  • For 7 days
  • Water Temperature
  • Satellite Maps
  • Weather Map
  • Weather Widgets
  • user-avatar
    Login

    Hourly Weather Nuuk

    Today, 23 October, Monday

    Time Temperature Precipitation Wind Pressure Humidity
    00:00 -10°C° 0 mm 9 mps 755 mmHg 66%
    01:00 -10°C° 0 mm 9 mps 755 mmHg 66%
    02:00 -10°C° 0 mm 8 mps 755 mmHg 65%
    03:00 -10°C° 0 mm 8 mps 755 mmHg 64%
    04:00 -10°C° 0 mm 8 mps 755 mmHg 63%
    05:00 -9°C° 0 mm 7 mps 755 mmHg 62%
    06:00 -9°C° 0 mm 7 mps 755 mmHg 61%
    07:00 -9°C° 0 mm 7 mps 755 mmHg 59%
    08:00 -8°C° 0 mm 6 mps 755 mmHg 57%
    09:00 -8°C° 0 mm 6 mps 755 mmHg 55%
    10:00 -6°C° 0 mm 6 mps 754 mmHg 54%
    11:00 -5°C° 0 mm 6 mps 754 mmHg 53%
    12:00 -4°C° 0 mm 5 mps 754 mmHg 51%
    13:00 -4°C° 0 mm 5 mps 754 mmHg 50%
    14:00 -2°C° 0 mm 5 mps 754 mmHg 50%
    15:00 -2°C° 0 mm 5 mps 754 mmHg 49%
    16:00 -2°C° 0 mm 4 mps 754 mmHg 48%
    17:00 -2°C° 0 mm 4 mps 754 mmHg 47%
    18:00 -1°C° 0 mm 3 mps 755 mmHg 46%
    19:00 -1°C° 0 mm 3 mps 755 mmHg 46%
    20:00 -1°C° 0 mm 2 mps 755 mmHg 46%
    21:00 -1°C° 0 mm 2 mps 755 mmHg 46%
    22:00 -1°C° 0 mm 2 mps 755 mmHg 46%
    23:00 -1°C° 0 mm 3 mps 755 mmHg 47%

    Tomorrow, 24 October, Tuesday

    Time Temperature Precipitation Wind Pressure Humidity
    00:00 -2°C° 0 mm 4 mps 755 mmHg 47%
    01:00 -2°C° 0 mm 4 mps 755 mmHg 47%
    02:00 -2°C° 0 mm 5 mps 755 mmHg 47%
    03:00 -2°C° 0 mm 5 mps 755 mmHg 47%
    04:00 -2°C° 0 mm 5 mps 756 mmHg 49%
    05:00 -3°C° 0 mm 6 mps 756 mmHg 50%
    06:00 -3°C° 0 mm 6 mps 756 mmHg 51%
    07:00 -3°C° 0 mm 6 mps 756 mmHg 53%
    08:00 -3°C° 0 mm 6 mps 756 mmHg 54%
    09:00 -2°C° 0 mm 6 mps 756 mmHg 56%
    10:00 -2°C° 0.2 mm 6 mps 756 mmHg 60%
    11:00 -2°C° 0.2 mm 7 mps 755 mmHg 64%
    12:00 -1°C° 0.2 mm 7 mps 755 mmHg 68%
    13:00 -1°C° 0.4 mm 7 mps 755 mmHg 74%
    14:00 -2°C° 0.4 mm 7 mps 755 mmHg 79%
    15:00 -2°C° 0.4 mm 8 mps 755 mmHg 85%
    16:00 -2°C° 0 mm 8 mps 755 mmHg 84%
    17:00 -2°C° 0 mm 8 mps 754 mmHg 83%
    18:00 -2°C° 0 mm 8 mps 754 mmHg 83%
    19:00 -2°C° 0.3 mm 8 mps 755 mmHg 83%
    20:00 -2°C° 0.3 mm 8 mps 755 mmHg 83%
    21:00 -2°C° 0.3 mm 8 mps 755 mmHg 83%
    22:00 -2°C° 0.2 mm 8 mps 755 mmHg 85%
    23:00 -2°C° 0.2 mm 7 mps 756 mmHg 87%

    Day after tomorrow, 25 October, Wednesday

    Time Temperature Precipitation Wind Pressure Humidity
    00:00 -2°C° 0.2 mm 6 mps 756 mmHg 89%
    01:00 -2°C° 0.1 mm 6 mps 756 mmHg 90%
    02:00 -1°C° 0.1 mm 5 mps 757 mmHg 91%
    03:00 -1°C° 0.1 mm 5 mps 757 mmHg 92%
    04:00 -1°C° 0 mm 5 mps 757 mmHg 92%
    05:00 -1°C° 0 mm 5 mps 758 mmHg 92%
    06:00 -1°C° 0 mm 4 mps 758 mmHg 92%
    07:00 -1°C° 0 mm 4 mps 758 mmHg 90%
    08:00 -1°C° 0 mm 4 mps 758 mmHg 89%
    09:00 -1°C° 0 mm 4 mps 758 mmHg 88%
    10:00 -1°C° 0 mm 4 mps 758 mmHg 86%
    11:00 -1°C° 0 mm 4 mps 758 mmHg 85%
    12:00 -1°C° 0 mm 4 mps 758 mmHg 84%
    13:00 -1°C° 0 mm 4 mps 758 mmHg 83%
    14:00 -1°C° 0 mm 4 mps 758 mmHg 81%
    15:00 -1°C° 0 mm 4 mps 757 mmHg 80%
    16:00 0°C° 0 mm 5 mps 757 mmHg 78%
    17:00 -1°C° 0 mm 6 mps 757 mmHg 75%
    18:00 -1°C° 0 mm 7 mps 756 mmHg 73%
    19:00 0°C° 0.2 mm 8 mps 755 mmHg 70%
    20:00 0°C° 0.2 mm 8 mps 755 mmHg 68%
    21:00 +1°C° 0.2 mm 9 mps 754 mmHg 65%
    22:00 +2°C° 0.9 mm 11 mps 753 mmHg 70%
    23:00 +1°C° 0.9 mm 13 mps 752 mmHg 75%

    26 October, Thursday

    Time Temperature Precipitation Wind Pressure Humidity
    00:00 +1°C° 0.9 mm 14 mps 752 mmHg 79%
    01:00 +1°C° 0.8 mm 15 mps 751 mmHg 82%
    02:00 +2°C° 0.8 mm 16 mps 751 mmHg 84%
    03:00 +2°C° 0.8 mm 17 mps 751 mmHg 86%
    04:00 +2°C° 1.7 mm 17 mps 751 mmHg 88%
    05:00 +2°C° 1.7 mm 16 mps 751 mmHg 91%
    06:00 +2°C° 1.7 mm 15 mps 751 mmHg 93%
    07:00 +3°C° 2.5 mm 14 mps 751 mmHg 94%
    08:00 +3°C° 2.5 mm 13 mps 751 mmHg 94%
    09:00 +2°C° 2.5 mm 12 mps 751 mmHg 95%
    10:00 +2°C° 2.7 mm 11 mps 752 mmHg 95%
    11:00 +2°C° 2.7 mm 11 mps 752 mmHg 95%
    12:00 +2°C° 2.7 mm 10 mps 752 mmHg 95%
    13:00 +2°C° 1.1 mm 9 mps 752 mmHg 94%
    14:00 +2°C° 1.1 mm 8 mps 753 mmHg 94%
    15:00 +3°C° 1.1 mm 7 mps 753 mmHg 93%
    16:00 +3°C° 0.8 mm 7 mps 753 mmHg 94%
    17:00 +3°C° 0.8 mm 7 mps 754 mmHg 95%
    18:00 +3°C° 0.8 mm 6 mps 754 mmHg 95%
    19:00 +3°C° 0.3 mm 6 mps 754 mmHg 96%
    20:00 +4°C° 0.3 mm 6 mps 754 mmHg 96%
    21:00 +4°C° 0.3 mm 7 mps 755 mmHg 96%
    22:00 +4°C° 0.2 mm 6 mps 755 mmHg 96%
    23:00 +4°C° 0.2 mm 6 mps 755 mmHg 96%

    27 October, Friday

    Time Temperature Precipitation Wind Pressure Humidity
    00:00 +5°C° 0.2 mm 5 mps 755 mmHg 96%
    01:00 +4°C° 0.2 mm 4 mps 756 mmHg 96%
    02:00 +4°C° 0.2 mm 3 mps 756 mmHg 96%
    03:00 +4°C° 0.2 mm 3 mps 756 mmHg 96%
    04:00 +5°C° 0.6 mm 2 mps 756 mmHg 96%
    05:00 +6°C° 0.6 mm 1 mps 756 mmHg 97%
    06:00 +6°C° 0.6 mm 1 mps 756 mmHg 97%
    07:00 +6°C° 0.6 mm 1 mps 756 mmHg 97%
    08:00 +6°C° 0.6 mm 1 mps 755 mmHg 97%
    09:00 +5°C° 0.6 mm 2 mps 755 mmHg 96%
    10:00 +5°C° 1.7 mm 2 mps 755 mmHg 97%
    11:00 +5°C° 1.7 mm 2 mps 755 mmHg 97%
    12:00 +5°C° 1.7 mm 2 mps 755 mmHg 97%
    13:00 +5°C° 2 mm 2 mps 755 mmHg 97%
    14:00 +4°C° 2 mm 3 mps 754 mmHg 97%
    15:00 +5°C° 2 mm 3 mps 754 mmHg 98%
    16:00 +5°C° 1.5 mm 4 mps 754 mmHg 98%
    17:00 +5°C° 1.5 mm 4 mps 754 mmHg 98%
    18:00 +5°C° 1.5 mm 5 mps 754 mmHg 98%
    19:00 +5°C° 0.4 mm 5 mps 754 mmHg 97%
    20:00 +3°C° 0.4 mm 5 mps 754 mmHg 97%
    21:00 +3°C° 0.4 mm 5 mps 754 mmHg 96%
    22:00 +5°C° 0.3 mm 4 mps 753 mmHg 95%
    23:00 +5°C° 0.3 mm 4 mps 753 mmHg 95%

    28 October, Saturday

    Time Temperature Precipitation Wind Pressure Humidity
    00:00 +5°C° 0.3 mm 3 mps 753 mmHg 94%
    01:00 +6°C° 0.8 mm 2 mps 753 mmHg 95%
    02:00 +7°C° 0.8 mm 1 mps 753 mmHg 95%
    03:00 +6°C° 0.8 mm 1 mps 753 mmHg 96%
    04:00 +6°C° 0.1 mm 1 mps 753 mmHg 96%
    05:00 +6°C° 0.1 mm 1 mps 753 mmHg 96%
    06:00 +6°C° 0.1 mm 1 mps 753 mmHg 97%
    07:00 +6°C° 0.1 mm 1 mps 754 mmHg 97%
    08:00 +5°C° 0.1 mm 2 mps 755 mmHg 98%
    09:00 +5°C° 0.1 mm 2 mps 755 mmHg 98%
    10:00 +5°C° 0.1 mm 2 mps 756 mmHg 98%
    11:00 +5°C° 0.1 mm 2 mps 756 mmHg 97%
    12:00 +3°C° 0.1 mm 3 mps 757 mmHg 97%
    13:00 +3°C° 0 mm 3 mps 757 mmHg 97%
    14:00 +3°C° 0 mm 3 mps 758 mmHg 96%
    15:00 +3°C° 0 mm 3 mps 758 mmHg 96%
    16:00 +3°C° 0 mm 3 mps 759 mmHg 95%
    17:00 +3°C° 0 mm 3 mps 760 mmHg 95%
    18:00 +2°C° 0 mm 3 mps 760 mmHg 95%
    19:00 +2°C° 0 mm 3 mps 760 mmHg 95%
    20:00 +2°C° 0 mm 3 mps 761 mmHg 95%
    21:00 +2°C° 0 mm 3 mps 761 mmHg 95%
    22:00 +1°C° 0 mm 4 mps 761 mmHg 95%
    23:00 +1°C° 0 mm 5 mps 761 mmHg 95%

    29 October, Sunday

    Time Temperature Precipitation Wind Pressure Humidity
    00:00 +2°C° 0 mm 5 mps 761 mmHg 95%
    01:00 +2°C° 0.5 mm 6 mps 761 mmHg 94%
    02:00 +2°C° 0.5 mm 7 mps 760 mmHg 94%
    03:00 +2°C° 0.5 mm 7 mps 760 mmHg 93%
    04:00 +1°C° 1.6 mm 9 mps 760 mmHg 89%
    05:00 +1°C° 1.6 mm 11 mps 760 mmHg 85%
    06:00 +2°C° 1.6 mm 12 mps 759 mmHg 81%
    07:00 +1°C° 0.9 mm 13 mps 760 mmHg 79%
    08:00 +1°C° 0.9 mm 13 mps 760 mmHg 77%
    09:00 +1°C° 0.9 mm 14 mps 760 mmHg 76%
    10:00 +1°C° 0.9 mm 13 mps 760 mmHg 79%
    11:00 +1°C° 0.9 mm 13 mps 760 mmHg 82%
    12:00 +2°C° 0.9 mm 12 mps 760 mmHg 85%
    13:00 +2°C° 1.2 mm 12 mps 760 mmHg 87%
    14:00 +2°C° 1.2 mm 12 mps 760 mmHg 89%
    15:00 +2°C° 1.2 mm 12 mps 760 mmHg 91%
    16:00 +2°C° 1.4 mm 12 mps 760 mmHg 91%
    17:00 +2°C° 1.4 mm 12 mps 761 mmHg 92%
    18:00 +2°C° 1.4 mm 11 mps 761 mmHg 93%
    19:00 +2°C° 1.9 mm 11 mps 761 mmHg 93%
    20:00 +2°C° 1.9 mm 11 mps 761 mmHg 94%
    21:00 +1°C° 1.9 mm 10 mps 761 mmHg 95%
    22:00 +1°C° 2 mm 9 mps 761 mmHg 95%
    23:00 +1°C° 2 mm 8 mps 762 mmHg 96%
    Show more